Regional Weather Roundup
Issued by NWS

Home | Current Version | Previous Version | Text Only | Print | Product List | Glossary On
Versions: 1 2 3 4 5 6 7 8 9 10 11 12 13 14 15 16 17 18 19 20 21 22 23 24 25 26 27 28 29 30 31 32 33 34 35 36 37 38 39 40 41 42 43 44 45 46 47 48 49 50
000
ASUS46 KPQR 010810
RWROR

OREGON REGIONAL WEATHER ROUNDUP
NATIONAL WEATHER SERVICE PORTLAND OR
100 AM PDT SAT AUG 01 2015

NOTE: "FAIR" INDICATES FEW OR NO CLOUDS BELOW 12,000 FEET WITH
NO SIGNIFICANT WEATHER AND/OR OBSTRUCTIONS TO VISIBILITY.

ORZ001>013-010900-
NORTHWEST OREGON


CITY           SKY/WX    TMP DP  RH WIND       PRES   REMARKS
ASTORIA        CLEAR     55  53  93 S3        30.03S
NEWPORT        CLEAR     50  50 100 CALM      30.03R
PORTLAND       CLEAR     74  45  35 N6        29.96R
VANCOUVER WA   CLEAR     72  44  36 CALM      29.96R
SCAPPOOSE      CLEAR     75  38  26 NW7       29.95S
HILLSBORO      CLEAR     69  35  28 NW7       29.96S
AURORA         CLEAR     73  40  30 NE3       29.97R
MCMINNVILLE    CLEAR     67  49  52 CALM      29.97R
SALEM          CLEAR     72  47  40 N3        29.95R
CORVALLIS      CLEAR     70  43  37 NW7       29.97R
EUGENE         CLEAR     68  50  52 CALM      29.95R
$$

ORZ021-028-010900-
SOUTHWEST OREGON


CITY           SKY/WX    TMP DP  RH WIND       PRES   REMARKS
NORTH BEND     CLEAR     54  54 100 N5        30.00S
BROOKINGS      CLOUDY    60  60 100 CALM      29.98F
ROSEBURG       PTCLDY    79  44  28 E3        29.91F
SEXTON SUMMIT  CLOUDY    77  35  21 N10       30.10S
MEDFORD        MOCLDY    86  51  29 S6        29.92S SMOKE
$$

ORZ014>016-041-010900-
COLUMBIA GORGE


CITY           SKY/WX    TMP DP  RH WIND       PRES   REMARKS
TROUTDALE      CLEAR     70  48  45 W5        29.95R
THE DALLES     CLEAR     82  47  29 W12       29.88S
$$

ORZ029>031-041-044-049-050-061>064-502-503-505>511-010900-
EASTERN OREGON


CITY           SKY/WX    TMP DP  RH WIND       PRES   REMARKS
REDMOND        CLEAR     62  31  31 SW5       30.08S
BEND           PTCLDY    73  32  21 W7        30.11F
PRINEVILLE     CLEAR     63  28  27 CALM      30.08S
KLAMATH FALLS  PTCLDY    62  47  57 N6        30.13F
LAKEVIEW       PTCLDY    63  37  39 SE5       30.18S
HERMISTON      CLEAR     79  39  23 SW5       29.86R
PENDLETON      NOT AVBL
JOHN DAY       MOCLDY    74  37  26 SW3       30.10F
MEACHAM        CLEAR     55  40  56 CALM      30.11S
LA GRANDE      CLEAR     64  36  34 E3        30.03S
BAKER CITY     PTCLDY    59  48  67 CALM      30.08S
BURNS          PTCLDY    65  34  31 CALM      30.12F
ROME             N/A     77  22  13 W5        30.08S
ONTARIO        PTCLDY    65  47  52 W3        29.98S
$$


USA.gov is the U.S. government's official web portal to all federal, state and local government web resources and services.